Location: Unspecified
(0.0000°N, 0.0000°E)
Time: 18:38:45
(UTC+00:00)

FREGAT DEB - Visible Passes

Search period start: 16 December 2025 00:00
Search period end: 26 December 2025 00:00
Orbit: 417 x 1459 km, 51.3° (Epoch: 15 December)

Date Brightness Start Highest point End Pass type
(mag) Time Alt. Az. Time Alt. Az. Time Alt. Az.
16 Dec ? 04:26:14 10° N 04:29:24 21° ENE 04:33:18 10° ESE visible
17 Dec ? 04:39:54 18° N 04:42:47 48° ENE 04:48:05 10° SE visible
18 Dec ? 04:53:27 22° NW 04:56:16 73° SW 05:01:53 10° SSE visible
19 Dec ? 03:23:04 13° ENE 03:23:04 13° ENE 03:24:33 10° E visible
19 Dec ? 05:06:53 16° WNW 05:09:51 32° SW 05:14:52 10° SSE visible
20 Dec ? 03:36:23 28° E 03:36:23 28° E 03:39:36 10° ESE visible
20 Dec ? 05:20:47 10° W 05:23:33 15° SW 05:26:44 10° S visible
21 Dec ? 03:49:34 46° SE 03:49:34 46° SE 03:53:19 10° SE visible
22 Dec ? 04:02:35 32° SSW 04:02:35 32° SSW 04:06:10 10° SSE visible
23 Dec ? 04:15:28 17° SW 04:15:28 17° SW 04:18:02 10° S visible
